Regional Weather Roundup
Issued by NWS

Home | Current Version | Previous Version | Graphics & Text | Print | Product List | Glossary On
Versions: 1 2 3 4 5 6 7 8 9 10 11 12 13 14 15 16 17 18 19 20 21 22 23 24 25 26 27 28 29 30 31 32 33 34 35 36 37 38 39 40 41 42 43 44 45 46 47 48 49 50
000
ASUS45 KABQ 251510
RWRNM
NEW MEXICO REGIONAL WEATHER ROUNDUP
NATIONAL WEATHER SERVICE ALBUQUERQUE NM
800 AM MST SAT FEB 25 2017

NOTE: "FAIR" MEANS FEW OR NO CLOUDS BELOW 12,000 FEET AGL WITH NO
       SIGNIFICANT WEATHER OR OBSTRUCTIONS TO VISION.

      THIS PRODUCT IS RELEASED AS TWO VERSIONS.  ONE VERSION NEAR
      THE TOP OF THE HOUR CONTAINING PRELIMINARY DATA FROM ALBUQUERQUE
      AND OTHER STATIONS.  A FINAL VERSION WITH ADDITIONAL DATA IS
      ISSUED ABOUT 10 MINUTES AFTER THE HOUR.

NMZ501-503-504-510>518-251600-
NORTHWEST PLATEAU/NORTHCENTRAL MOUNTAINS

CITY           SKY/WX    TMP DP  RH WIND       PRES   REMARKS
FARMINGTON     FAIR      19  12  74 E5        30.08R WCI  12
LOS ALAMOS       N/A     24   0  34 CALM      30.04R
SANTA FE       FAIR      23   5  46 CALM      30.05R
TAOS           FAIR      18   1  49 SE5       30.03S WCI  11
ANGEL FIRE     FAIR      17   4  57 SW13      29.98S WCI   4

$$
NMZ402-403-502-505>509-251600-
WESTCENTRAL MOUNTAINS/SOUTHWEST MOUNTAINS

CITY           SKY/WX    TMP DP  RH WIND       PRES   REMARKS
GALLUP         FAIR      19   9  65 CALM      30.07S
GRANTS         FAIR      16   7  67 NW5       30.09S WCI   8
SILVER CITY    FAIR      35  12  38 NW7       30.11S WCI  29

$$
NMZ407-409-411-412-251600-
SOUTHERN DESERTS

CITY           SKY/WX    TMP DP  RH WIND       PRES   REMARKS
DEMING         FAIR      35  15  44 SW5       30.12R WCI  31
LAS CRUCES     FAIR      39   9  29 SW10      30.12R WCI  32
HOLLOMAN AFB   FAIR      36  10  34 S6        30.14R WCI  31
ALAMOGORDO     FAIR      37  10  32 S7        30.11R WCI  32
T OR C         FAIR      38  10  31 CALM      30.09R

$$
NMZ519>523-251600-
CENTRAL VALLEYS/CENTRAL HIGHLANDS

CITY           SKY/WX    TMP DP  RH WIND       PRES   REMARKS
ALBUQUERQUE    FAIR      30   4  33 N3        30.10R
DOUBLE EAGLE   SUNNY     27  10  50 CALM      30.09R
MORIARTY ARPT  FAIR      22   6  51 CALM      30.08S
CLINES CORNERS FAIR      26   1  34 W10       30.04S WCI  16
BELEN          FAIR      31   2  29 CALM      30.11R
SOCORRO        FAIR      33   3  28 N6        30.11R WCI  28

$$
NMZ524>526-539-540-251600-
SOUTHCENTRAL MOUNTAINS

CITY           SKY/WX    TMP DP  RH WIND       PRES   REMARKS
RUIDOSO        FAIR      30   3  31 CALM      30.10R

$$
NMZ527>531-251600-
NORTHEAST HIGHLANDS/NORTHEAST PLAINS

CITY           SKY/WX    TMP DP  RH WIND       PRES   REMARKS
LAS VEGAS      FAIR      19  13  77 S7        30.01S WCI  10
RATON          FAIR      17  11  77 E5        30.00S WCI  10
CLAYTON        FAIR      24  18  77 SW10      30.06S WCI  14

$$
NMZ532>537-251600-
EASTCENTRAL PLAINS

CITY           SKY/WX    TMP DP  RH WIND       PRES   REMARKS
TUCUMCARI      FAIR      25  15  66 CALM      30.13S
CANNON AFB     NOT AVBL
CLOVIS AIRPORT FAIR      27  18  69 S12       30.15R WCI  16

$$
NMZ028-029-538-251600-
SOUTHEAST PLAINS

CITY           SKY/WX    TMP DP  RH WIND       PRES   REMARKS
ROSWELL        FAIR      34  13  41 S7          N/A  WCI  28
ARTESIA        FAIR      36  18  48 SE12      30.18R WCI  27
CARLSBAD       FAIR      36  20  52 E9        30.17R WCI  29
HOBBS          SUNNY     32  18  55 E13       30.19R WCI  22


$$




USA.gov is the U.S. government's official web portal to all federal, state and local government web resources and services.